Location: *
(43.9900°N, 3.4811°E)
Time: 12:42:56
(UTC+00:00)

Meteor 2-4 Rocket - Pass Details

Date: 25 August 2019
Orbit: 799 x 909 km, 81.2° (Epoch: 22 September)

Event Time Altitude Azimuth Distance (km) Brightness Sun altitude
Rises 19:00:57 0° 356° (N) 3,323 7.1 -5.3°
Reaches altitude 10° 19:03:31 10° 5° (N) 2,383 6.3 -5.7°
Maximum altitude 19:08:29 37° 73° (ENE) 1,218 4.2 -6.6°
Drops below altitude 10° 19:13:26 10° 140° (SE) 2,378 5.5 -7.4°
Enters shadow 19:14:57 - 146° (SE) 2,929 6.0 -7.6°
